Kecskemet, Hungary

4:42 AM CEST on October 20, 2017 (GMT +0200)
Kecskemet

Weather History for LHKE - October, 2012

Change the Weather History Date:

Wednesday, October 31, 2012

  Actual Average (LHBP) Record (LHBP)
Temperature  
Mean Temperature 39 °F -  
Max Temperature 48 °F 53 °F 73 °F (2000)
Min Temperature 30 °F 35 °F 21 °F (2006)
Degree Days  
Heating Degree Days 26    
Moisture  
Dew Point 33 °F    
Average Humidity 84    
Maximum Humidity 100    
Minimum Humidity 58    
Precipitation  
Precipitation 0.00 in - - ()
Sea Level Pressure  
Sea Level Pressure 29.94 in    
Wind  
Wind Speed 7 mph ()    
Max Wind Speed 13 mph    
Max Gust Speed -    
Visibility 4.5 miles    
Events Fog    
Averages and records for this station are not official NWS values.
T = Trace of Precipitation, MM = Missing Value Source: Averaged Metar Reports

Daily Weather History Graph

Daily Weather History Graph

Search for Another Location

Airport or City:

Trip Planner

Search our weather history database for the weather conditions in past years. The results will help you decide how hot, cold, wet, or windy it might be!

Date:

Astronomy

Oct. 31, 2012 Rise Set
Actual Time 6:22 AM CET 4:26 PM CET
Civil Twilight 5:50 AM CET 4:57 PM CET
Nautical Twilight 5:14 AM CET 5:33 PM CET
Astronomical Twilight 4:39 AM CET 6:08 PM CET
Moon 5:17 PM CET (10/31) 7:53 AM CET (10/31)
Length of Visible Light 11h 07m
Length of Day
10h 03m
Full, 98% of the Moon is Illuminated
Oct 31
Full
Nov 7
Last Quarter
Nov 13
New
Nov 20
First Quarter
Nov 28
Full

Hourly Weather History & Observations

Time (CET) Temp. Windchill Dew Point Humidity Pressure Visibility Wind Dir Wind Speed Gust Speed Precip Events Conditions
12:15 AM 33.8 °F 27.9 °F 30.2 °F 87% 29.95 in - South 6.7 mph - N/A   Clear
12:45 AM 33.8 °F 27.9 °F 30.2 °F 87% 29.92 in - South 6.7 mph - N/A   Clear
1:15 AM 32.0 °F 27.6 °F 30.2 °F 93% 29.92 in - South 4.5 mph - N/A   Clear
1:45 AM 32.0 °F 25.7 °F 30.2 °F 93% 29.95 in - SSE 6.7 mph - N/A   Clear
2:15 AM 32.0 °F 25.7 °F 30.2 °F 93% 29.92 in 5.0 mi SSE 6.7 mph - N/A   Clear
2:45 AM 32.0 °F 25.7 °F 30.2 °F 93% 29.92 in 5.0 mi SSE 6.7 mph - N/A   Clear
3:15 AM 30.2 °F 23.5 °F 30.2 °F 100% 29.92 in 4.3 mi SSE 6.7 mph - N/A   Clear
3:45 AM 30.2 °F 22.1 °F 30.2 °F 100% 29.92 in 3.7 mi SSE 8.9 mph - N/A   Clear
4:15 AM 30.2 °F 22.1 °F 30.2 °F 100% 29.92 in 3.7 mi SSE 8.9 mph - N/A   Clear
4:45 AM 30.2 °F 22.1 °F 30.2 °F 100% 29.92 in 3.1 mi SSE 8.9 mph - N/A   Clear
5:15 AM 30.2 °F 23.5 °F 28.4 °F 93% 29.92 in 3.1 mi SSE 6.7 mph - N/A   Clear
5:45 AM - - - N/A% - 3.1 mi South 6.7 mph - N/A Fog Light Freezing Fog
6:15 AM 30.2 °F 25.5 °F 30.2 °F 100% 29.95 in 2.5 mi SE 4.5 mph - N/A   Scattered Clouds
6:45 AM 30.2 °F 23.5 °F 30.2 °F 100% 29.95 in 2.5 mi SSE 6.7 mph - N/A   Mostly Cloudy
7:15 AM 32.0 °F 24.3 °F 30.2 °F 93% 29.95 in 3.1 mi SSE 8.9 mph - N/A   Mostly Cloudy
7:45 AM 32.0 °F 24.3 °F 30.2 °F 93% 29.98 in 3.1 mi SSE 8.9 mph - N/A   Scattered Clouds
8:15 AM 33.8 °F 26.5 °F 32.0 °F 93% 29.98 in 3.7 mi SSE 8.9 mph - N/A   Unknown
8:45 AM - - - N/A% - - SSE 8.9 mph - N/A   Clear
9:15 AM 37.4 °F 32.2 °F 33.8 °F 87% 29.98 in 5.0 mi SSE 6.7 mph - N/A   Unknown
9:45 AM 41.0 °F 35.4 °F 35.6 °F 81% 29.98 in 5.0 mi SSE 8.9 mph - N/A   Unknown
10:15 AM 41.0 °F 35.4 °F 35.6 °F 81% 29.98 in - SE 8.9 mph - N/A   Clear
10:45 AM 44.6 °F 39.8 °F 35.6 °F 71% 29.98 in - SE 8.9 mph - N/A   Clear
11:15 AM 44.6 °F 39.8 °F 35.6 °F 71% 29.98 in - SE 8.9 mph - N/A   Clear
11:45 AM - - - N/A% - - SSE 11.2 mph - N/A   Clear
12:15 PM 46.4 °F 41.2 °F 35.6 °F 66% 29.95 in 6.2 mi SE 11.2 mph - N/A   Mostly Cloudy
12:45 PM 48.2 °F - 37.4 °F 66% 29.95 in 6.2 mi SE 13.4 mph - N/A   Partly Cloudy
1:15 PM 48.2 °F - 37.4 °F 66% 29.95 in 6.2 mi SE 11.2 mph - N/A   Partly Cloudy
1:45 PM 48.2 °F - 35.6 °F 62% 29.95 in 6.2 mi SE 13.4 mph - N/A   Scattered Clouds
2:15 PM 48.2 °F - 35.6 °F 62% 29.95 in 6.2 mi SE 11.2 mph - N/A   Scattered Clouds
2:45 PM 48.2 °F - 33.8 °F 58% 29.95 in - SE 11.2 mph - N/A   Clear
3:15 PM 48.2 °F - 35.6 °F 62% 29.95 in - SE 11.2 mph - N/A   Clear
3:45 PM 46.4 °F 42.0 °F 33.8 °F 62% 29.95 in - SE 8.9 mph - N/A   Clear
4:15 PM 44.6 °F 39.8 °F 33.8 °F 66% 29.92 in - ESE 8.9 mph - N/A   Clear
4:45 PM 42.8 °F 38.7 °F 35.6 °F 76% 29.92 in - ESE 6.7 mph - N/A   Clear
5:15 PM 41.0 °F 36.5 °F 35.6 °F 81% 29.92 in - ESE 6.7 mph - N/A   Clear
5:45 PM - - - N/A% - - North - - N/A   Unknown
6:15 PM 39.2 °F 34.4 °F 35.6 °F 87% 29.95 in - ESE 6.7 mph - N/A   Clear
6:45 PM 39.2 °F 34.4 °F 35.6 °F 87% 29.92 in - ESE 6.7 mph - N/A   Clear
7:15 PM 39.2 °F 34.4 °F 35.6 °F 87% 29.92 in - East 6.7 mph - N/A   Clear
7:45 PM 37.4 °F 32.2 °F 35.6 °F 93% 29.92 in - East 6.7 mph - N/A   Clear
8:15 PM 35.6 °F 30.0 °F 33.8 °F 93% 29.92 in 5.0 mi ESE 6.7 mph - N/A   Unknown
8:45 PM - - - N/A% - - North - - N/A   Unknown
9:45 PM 35.6 °F 30.0 °F 33.8 °F 93% 29.89 in 5.0 mi East 6.7 mph - N/A   Unknown
10:15 PM 35.6 °F 30.0 °F 33.8 °F 93% 29.89 in 5.0 mi East 6.7 mph - N/A   Unknown
10:45 PM 35.6 °F 30.0 °F 32.0 °F 87% 29.86 in 5.0 mi East 6.7 mph - N/A   Unknown
11:15 PM 35.6 °F 30.0 °F 32.0 °F 87% 29.86 in - East 6.7 mph - N/A   Clear
11:45 PM - - - N/A% - 6.2 mi North - - N/A   Overcast